GW2260 Weather Reports


Display with metric or nautical units.
time (UTC)temp
F
wind
direction
speed
MPH
gust
MPH
rain 1hr
in
rain 24hr
in
rain mn
in
humidity
%
barometer
mb
20260506200047 68 311 1.0 6.0 0.00 0.00 0.00 87 1019.8
20260506200019 68 305 2.0 3.0 0.00 0.00 0.00 87 1019.9
20260506195019 68 268 2.0 3.0 0.00 0.00 0.00 85 1020.0
20260506194545 68 287 2.0 5.0 0.00 0.00 0.00 84 1020.1
20260506194018 69 304 1.0 2.0 0.00 0.00 0.00 86 1020.1
20260506193045 68 315 1.0 4.0 0.00 0.00 0.00 82 1019.9
20260506193018 69 300 1.0 4.0 0.00 0.00 0.00 83 1020.1
20260506192019 69 323 2.0 4.0 0.00 0.00 0.00 83 1019.9
20260506191544 68 268 1.0 5.0 0.00 0.00 0.00 81 1019.8
20260506191019 69 278 1.0 2.0 0.00 0.00 0.00 79 1019.8
20260506190048 69 0 1.0 3.0 0.00 0.00 0.00 79 1019.7
20260506190019 70 268 1.0 3.0 0.00 0.00 0.00 79 1019.7
20260506185018 70 311 1.0 3.0 0.00 0.00 0.00 78 1019.7
20260506184554 69 318 1.0 3.0 0.00 0.00 0.00 78 1019.5
20260506184018 69 314 1.0 2.0 0.00 0.00 0.00 79 1019.6
20260506183044 68 340 1.0 3.0 0.00 0.00 0.00 77 1019.6
20260506183019 69 296 2.0 3.0 0.00 0.00 0.00 79 1019.7
20260506182018 68 312 2.0 3.0 0.00 0.00 0.00 79 1019.6
20260506181541 67 0 0.0 2.0 0.00 0.00 0.00 80 1019.6
20260506181039 67 296 0.0 2.0 0.00 0.00 0.00 82 1019.5
20260506180042 67 315 0.0 4.0 0.00 0.00 0.00 77 1019.2
20260506180040 68 297 1.0 2.0 0.00 0.00 0.00 77 1019.3
20260506175101 68 341 3.0 4.0 0.00 0.00 0.00 74 1019.2
20260506174543 67 313 0.0 4.0 0.00 0.00 0.00 71 1019.1
20260506174018 66 61 1.0 2.0 0.00 0.00 0.00 74 1019.1
20260506173053 63 52 2.0 7.0 0.00 0.00 0.00 74 1019.0
20260506173019 64 90 2.0 4.0 0.00 0.00 0.00 75 1019.1
20260506172019 62 105 3.0 7.0 0.00 0.00 0.00 76 1019.0
20260506171544 61 89 2.0 6.0 0.00 0.00 0.00 77 1018.9
20260506171019 61 68 1.0 3.0 0.00 0.00 0.00 79 1019.0
20260506170043 59 122 2.0 6.0 0.00 0.00 0.00 80 1018.7
20260506170040 60 110 2.0 6.0 0.00 0.00 0.00 81 1018.7
20260506165019 59 110 2.0 3.0 0.00 0.00 0.00 81 1018.5
20260506164547 58 101 2.0 4.0 0.00 0.00 0.00 82 1018.4
20260506164018 59 114 2.0 4.0 0.00 0.00 0.00 82 1018.5
20260506163056 59 128 2.0 6.0 0.00 0.00 0.00 80 1018.2
20260506163018 59 118 2.0 3.0 0.00 0.00 0.00 80 1018.3
20260506162039 59 116 2.0 3.0 0.00 0.00 0.00 81 1018.3
20260506161544 58 90 2.0 5.0 0.00 0.00 0.00 82 1018.1
20260506161018 58 103 2.0 4.0 0.00 0.00 0.00 83 1018.2
20260506160045 57 114 1.0 3.0 0.00 0.00 0.00 81 1018.1
20260506160018 58 106 2.0 2.0 0.00 0.00 0.00 82 1018.2
20260506155518 58 119 2.0 3.0 0.00 0.00 0.00 82 1018.1
20260506154619 57 106 3.0 5.0 0.00 0.00 0.00 82 1017.9
20260506154552 57 93 2.0 4.0 0.00 0.00 0.00 82 1017.9
20260506153618 57 116 2.0 3.0 0.00 0.00 0.00 83 1018.0
20260506153040 57 119 1.0 3.0 0.00 0.00 0.00 82 1017.9
20260506152618 58 111 2.0 3.0 0.00 0.00 0.00 82 1018.0
20260506151619 58 115 2.0 3.0 0.00 0.00 0.00 82 1017.9
20260506151541 58 115 2.0 4.0 0.00 0.00 0.00 81 1017.9
20260506150618 59 108 2.0 3.0 0.00 0.00 0.00 80 1017.8
20260506150045 59 105 2.0 7.0 0.00 0.00 0.00 79 1017.7
20260506145619 60 109 2.0 4.0 0.00 0.00 0.00 80 1017.7
20260506144619 59 110 4.0 8.0 0.00 0.00 0.00 80 1017.7
20260506144542 59 105 3.0 8.0 0.00 0.00 0.00 79 1017.7
20260506143619 59 109 3.0 4.0 0.00 0.00 0.00 80 1017.7
20260506143042 58 107 3.0 7.0 0.00 0.00 0.00 79 1017.6
20260506142619 59 108 2.0 3.0 0.00 0.00 0.00 80 1017.6
20260506141619 58 102 4.0 6.0 0.00 0.00 0.00 83 1017.6
20260506141541 58 132 3.0 4.0 0.00 0.00 0.00 82 1017.6
20260506140618 58 110 2.0 4.0 0.00 0.00 0.00 83 1017.7
20260506140041 58 129 2.0 4.0 0.00 0.00 0.00 81 1017.8
20260506135618 58 118 2.0 4.0 0.00 0.00 0.00 80 1017.9
20260506134618 58 119 3.0 4.0 0.00 0.00 0.00 79 1017.7
20260506134545 58 136 2.0 5.0 0.00 0.00 0.00 79 1017.7
20260506133618 59 108 2.0 3.0 0.00 0.00 0.00 80 1017.8
20260506133047 58 119 2.0 4.0 0.00 0.00 0.00 79 1017.8
20260506132618 58 104 3.0 3.0 0.00 0.00 0.00 78 1017.7
20260506131617 58 115 2.0 3.0 0.00 0.00 0.00 78 1017.6
20260506131542 58 121 2.0 7.0 0.00 0.00 0.00 78 1017.6
20260506130618 58 112 3.0 3.0 0.00 0.00 0.00 78 1017.7
20260506130041 57 111 2.0 4.0 0.00 0.00 0.00 78 1017.7
20260506125618 58 117 2.0 3.0 0.00 0.00 0.00 78 1017.7
20260506124619 58 117 3.0 7.0 0.00 0.00 0.00 75 1017.8
20260506124544 58 117 2.0 7.0 0.00 0.00 0.00 75 1017.7
20260506123618 58 114 3.0 4.0 0.00 0.00 0.00 77 1017.9
20260506123037 57 126 2.0 4.0 0.00 0.00 0.00 77 1017.7
20260506122639 58 125 3.0 4.0 0.00 0.00 0.00 77 1017.7
20260506121619 59 110 2.0 3.0 0.00 0.00 0.00 76 1017.9
20260506121553 58 107 2.0 6.0 0.00 0.00 0.00 76 1017.9
20260506120618 60 103 3.0 3.0 0.00 0.00 0.00 75 1018.2
20260506120044 59 114 2.0 6.0 0.00 0.00 0.00 73 1018.0
20260506115619 60 119 3.0 5.0 0.00 0.00 0.00 73 1018.1
20260506114618 59 133 2.0 8.0 0.00 0.00 0.00 75 1018.3
20260506114542 58 126 4.0 8.0 0.00 0.00 0.00 75 1018.2
20260506113619 59 137 2.0 5.0 0.00 0.00 0.00 74 1018.3
20260506113041 58 113 2.0 8.0 0.00 0.00 0.00 76 1018.4
20260506112618 59 117 4.0 8.0 0.00 0.00 0.00 77 1018.6
20260506111619 58 119 3.0 4.0 0.00 0.00 0.00 80 1018.8
20260506111542 58 123 2.0 6.0 0.00 0.00 0.00 80 1018.7
20260506110618 59 128 2.0 6.0 0.00 0.00 0.00 82 1019.0
20260506110045 59 133 2.0 4.0 0.00 0.00 0.00 82 1019.1
20260506105618 59 109 2.0 4.0 0.00 0.00 0.00 83 1019.2
20260506104619 59 110 3.0 4.0 0.00 0.00 0.00 82 1019.6
20260506104546 59 111 2.0 4.0 0.00 0.00 0.00 81 1019.5
20260506103618 59 111 3.0 4.0 0.00 0.00 0.00 83 1019.7
20260506103041 59 115 3.0 6.0 0.00 0.00 0.00 83 1019.8
20260506102619 59 114 3.0 4.0 0.00 0.00 0.00 83 1019.9
20260506101640 59 107 3.0 4.0 0.00 0.00 0.00 84 1019.9
20260506101541 59 100 3.0 5.0 0.00 0.00 0.00 83 1019.8
20260506100619 59 110 3.0 3.0 0.00 0.00 0.00 83 1020.0
20260506100040 58 110 3.0 6.0 0.00 0.00 0.00 82 1019.8
20260506095619 59 105 3.0 4.0 0.00 0.00 0.00 82 1019.9
20260506094619 59 108 4.0 4.0 0.00 0.00 0.00 82 1019.8
20260506094546 58 99 2.0 4.0 0.00 0.00 0.00 82 1019.8
20260506093701 59 107 3.0 4.0 0.00 0.00 0.00 82 1019.9
20260506093045 58 120 2.0 4.0 0.00 0.00 0.00 83 1019.9
20260506092619 59 115 3.0 4.0 0.00 0.00 0.00 85 1019.9
20260506091619 59 114 2.0 3.0 0.00 0.00 0.00 84 1020.0
20260506091542 58 116 2.0 4.0 0.00 0.00 0.00 84 1020.0
20260506090619 59 118 2.0 3.0 0.00 0.00 0.00 85 1020.1
20260506090046 58 108 2.0 4.0 0.00 0.00 0.00 84 1020.1
20260506085618 59 118 2.0 3.0 0.00 0.00 0.00 84 1020.1
20260506084617 59 107 2.0 3.0 0.00 0.00 0.00 85 1020.1
20260506084545 59 109 1.0 4.0 0.00 0.00 0.00 84 1020.0
20260506083700 59 98 2.0 4.0 0.00 0.00 0.00 86 1019.9
20260506083049 59 104 2.0 4.0 0.00 0.00 0.00 85 1019.8
20260506082701 59 102 3.0 4.0 0.00 0.00 0.00 86 1019.9
20260506081619 59 100 2.0 2.0 0.00 0.00 0.00 84 1019.8
20260506081548 59 101 1.0 4.0 0.00 0.00 0.00 84 1019.8
20260506080618 59 113 3.0 4.0 0.00 0.00 0.00 84 1019.8
20260506073042 59 103 2.0 3.0 0.00 0.00 0.00 89 1019.8
20260506072619 60 110 2.0 3.0 0.00 0.00 0.00 88 1019.7
20260506071618 60 108 2.0 3.0 0.00 0.00 0.00 87 1019.6
20260506071542 59 104 2.0 4.0 0.00 0.00 0.00 86 1019.6
20260506070638 60 107 2.0 4.0 0.00 0.00 0.00 87 1019.4
20260506061619 61 103 2.0 4.0 0.00 0.00 0.00 86 1018.9
20260506061547 60 115 1.0 4.0 0.00 0.00 0.00 86 1018.7
20260506060618 62 110 1.0 2.0 0.00 0.00 0.00 88 1018.8
20260506050618 64 0.0 0.0 0.00 0.00 0.00 96 1018.3
20260506044618 65 247 0.0 1.0 0.00 0.00 0.00 95 1018.1
20260506044543 64 251 0.0 3.0 0.00 0.00 0.00 94 1018.1
20260506043618 65 216 0.0 3.0 0.00 0.00 0.00 94 1018.1
20260506043045 65 151 1.0 4.0 0.00 0.00 0.00 93 1018.0
20260506042618 66 285 0.0 1.0 0.00 0.00 0.00 93 1018.0
20260506041618 66 281 1.0 1.0 0.00 0.00 0.00 92 1017.9
20260506041557 66 0 0.0 3.0 0.00 0.00 0.00 92 1017.9
20260506040618 67 258 1.0 3.0 0.00 0.00 0.00 91 1017.7
20260506040044 67 298 1.0 4.0 0.00 0.00 0.00 91 1017.6
20260506035618 67 197 1.0 4.0 0.00 0.00 0.00 92 1017.6
20260506034640 67 296 0.0 1.0 0.00 0.00 0.00 92 1017.6
20260506034550 67 0 1.0 4.0 0.00 0.00 0.00 91 1017.6
20260506033617 67 281 2.0 2.0 0.00 0.00 0.00 92 1017.6
20260506033039 67 0 0.0 4.0 0.00 0.00 0.00 91 1017.4
20260506032618 67 286 0.0 2.0 0.00 0.00 0.00 91 1017.5
20260506031639 68 308 1.0 1.0 0.00 0.00 0.00 89 1017.6
20260506031544 67 0 0.0 2.0 0.00 0.00 0.00 89 1017.5
20260506030618 68 258 0.0 1.0 0.00 0.00 0.00 88 1017.6
20260506030043 68 256 1.0 4.0 0.00 0.00 0.00 88 1017.6
20260506025701 69 249 1.0 2.0 0.00 0.00 0.00 87 1017.6
20260506024618 69 221 2.0 4.0 0.00 0.00 0.00 87 1017.5
20260506024541 69 171 2.0 5.0 0.00 0.00 0.00 87 1017.5
20260506023618 69 281 1.0 4.0 0.00 0.00 0.00 87 1017.4
20260506023043 68 251 1.0 7.0 0.00 0.00 0.00 87 1017.4
20260506022618 69 255 2.0 3.0 0.00 0.00 0.00 86 1017.5
20260506021618 69 231 2.0 4.0 0.00 0.00 0.00 84 1017.4
20260506021544 69 212 2.0 5.0 0.00 0.00 0.00 84 1017.3
20260506020618 71 322 2.0 5.0 0.00 0.00 0.00 84 1017.5
20260506020051 70 0 2.0 6.0 0.00 0.00 0.00 84 1017.6
20260506015618 71 292 3.0 5.0 0.00 0.00 0.00 85 1017.7
20260506014618 71 262 2.0 5.0 0.00 0.00 0.00 84 1017.7
20260506014541 71 290 1.0 6.0 0.00 0.00 0.00 84 1017.6
20260506013618 72 296 3.0 6.0 0.00 0.00 0.00 85 1017.5
20260506013051 71 186 2.0 6.0 0.00 0.00 0.00 82 1017.5
20260506012619 71 315 3.0 4.0 0.00 0.00 0.00 84 1017.5
20260506011617 71 310 3.0 4.0 0.00 0.00 0.00 85 1017.7
20260506011547 70 268 1.0 6.0 0.00 0.00 0.00 84 1017.7
20260506010618 71 265 2.0 4.0 0.00 0.00 0.00 83 1017.7
20260506010048 70 294 2.0 7.0 0.00 0.00 0.00 84 1017.6
20260506005619 70 237 2.0 3.0 0.00 0.00 0.00 84 1017.8
20260506004618 72 220 4.0 8.0 0.00 0.00 0.00 82 1017.8
20260506004542 71 214 3.0 11.0 0.00 0.00 0.00 82 1017.8
20260506003619 72 222 5.0 11.0 0.00 0.00 0.00 80 1018.0
20260506003041 72 216 2.0 9.0 0.00 0.00 0.00 83 1018.1
20260506002619 71 243 2.0 5.0 0.00 0.00 0.00 82 1018.3
20260506001618 71 275 1.0 3.0 0.00 0.00 0.00 83 1018.5
20260506001536 71 0 1.0 10.0 0.00 0.00 0.00 82 1018.4
20260506000619 73 212 6.0 10.0 0.00 0.00 0.00 80 1018.3
20260506000052 72 213 2.0 7.0 0.00 0.00 0.00 81 1018.4
20260505235639 71 235 3.0 6.0 0.00 0.00 0.00 84 1018.4
20260505234618 71 217 3.0 6.0 0.00 0.00 0.00 80 1018.6
20260505234543 71 209 2.0 9.0 0.00 0.00 0.00 79 1018.5
20260505233617 72 221 1.0 3.0 0.00 0.00 0.00 80 1018.7
20260505233046 71 288 2.0 6.0 0.00 0.00 0.00 79 1018.7
20260505232617 71 229 2.0 3.0 0.00 0.00 0.00 80 1018.8
20260505231617 70 205 3.0 7.0 0.00 0.00 0.00 81 1018.9
20260505231540 70 207 0.0 4.0 0.00 0.00 0.00 81 1018.8
20260505230617 69 348 2.0 4.0 0.00 0.00 0.00 84 1019.1
20260505230112 68 300 1.0 7.0 0.00 0.00 0.00 84 1019.1
20260505225638 69 297 1.0 2.0 0.00 0.00 0.00 85 1019.2
20260505224617 69 285 1.0 6.0 0.00 0.00 0.00 86 1019.3
20260505224543 69 302 1.0 6.0 0.00 0.00 0.00 86 1019.2
20260505223617 68 296 1.0 3.0 0.00 0.00 0.00 87 1019.5
20260505223044 67 0 0.0 3.0 0.00 0.00 0.00 87 1019.5
20260505222617 68 352 1.0 2.0 0.00 0.00 0.00 87 1019.6
20260505221638 67 295 1.0 3.0 0.00 0.00 0.00 90 1019.5
20260505221546 67 320 1.0 4.0 0.00 0.00 0.00 90 1019.5
20260505220638 67 237 1.0 4.0 0.00 0.00 0.00 91 1019.6
20260505220051 67 0 1.0 4.0 0.00 0.00 0.00 91 1019.6
20260505215638 67 226 1.0 3.0 0.00 0.00 0.00 92 1019.7
20260505214617 67 237 1.0 2.0 0.00 0.00 0.00 93 1019.9
20260505214543 66 0 1.0 4.0 0.00 0.00 0.00 92 1019.8
20260505213617 66 331 1.0 3.0 0.00 0.00 0.00 94 1019.8
20260505213043 65 295 0.0 4.0 0.00 0.00 0.00 95 1019.8
20260505212618 66 276 2.0 3.0 0.00 0.00 0.00 95 1019.8
20260505211617 66 0.0 0.0 0.00 0.00 0.00 95 1019.9
20260505211538 65 0 0.0 3.0 0.00 0.00 0.00 95 1019.8
20260505210617 66 339 1.0 3.0 0.00 0.00 0.00 95 1020.0
20260505210040 65 271 1.0 4.0 0.00 0.00 0.00 95 1019.9
20260505205617 65 313 0.0 1.0 0.00 0.00 0.00 95 1019.9
20260505204617 65 345 2.0 4.0 0.00 0.00 0.00 95 1019.8
20260505204539 65 350 1.0 5.0 0.00 0.00 0.00 95 1019.8
20260505203617 65 282 1.0 3.0 0.00 0.00 0.00 95 1019.9
20260505203044 65 207 0.0 4.0 0.00 0.00 0.00 94 1019.9
20260505202617 65 308 1.0 4.0 0.00 0.00 0.00 94 1019.9
20260505201617 66 350 2.0 4.0 0.00 0.00 0.00 93 1019.9
20260505201549 66 327 0.0 3.0 0.00 0.00 0.00 92 1019.9
20260505200617 67 301 2.0 3.0 0.00 0.00 0.00 92 1019.9